Flag for Macedonia, Republic of Weather past 2 weeks in Ohrid, Macedonia, Republic of

Now
50 °F

Clear.


Feels Like: 48 °F
Forecast: 50 / 78 °F
Wind: 6 mph from Northwest

Location: Ohrid Airport

Current Time: Sep 19, 2014 at 6:29:53 AM

Latest Report: Sep 19, 2014 at 6:00 AM


Visibility: 10 mi

Pressure: 30.21 "Hg

Humidity: 88%

Dew point: 46 °F

Location of OhridLocation

Historic Weather in Ohrid — Graph

°F

Ohrid temperature yesterday

Maximum temperature yesterday: 72 °F (at 2:30 PM)
Minimum temperature yesterday: 59 °F (at 7:30 AM)
Average temperature yesterday: 66 °F

Past Weeks' High & Low Weather Summary

 TemperatureHumidityPressure
High77 °F (Sep 7, 3:00 PM)94% (Sep 4, 8:00 AM)30.21 "Hg (Sep 4, 8:00 AM)
Low46 °F (Sep 16, 4:00 AM)40% (Sep 16, 5:00 PM)29.80 "Hg (Sep 6, 2:30 PM)
Average65 °F74%29.99 "Hg
* Reported Sep 4 7:30 AM — Sep 19 5:30 AM, Ohrid, Weather by CustomWeather, © 2014

Note: Actual official high and low records may vary slightly from our data, if they occured in-between our weather recording intervals... More about our weather records

Advertising

Ohrid weather history for previous 24 hours

 ConditionsComfort  
Time TempWeatherWind HumidityBarometerVisibility
5:30 AM
Sep 19
50 °FClear.5 mph94%30.21 "Hg10 mi
5:00 AM50 °FClear.5 mph88%30.21 "Hg10 mi
4:30 AM50 °FClear.5 mph94%30.21 "Hg10 mi
4:00 AM50 °FClear.6 mph94%30.21 "Hg10 mi
3:30 AM52 °FClear.3 mph88%30.21 "Hg10 mi
3:00 AM52 °FClear.5 mph88%30.21 "Hg10 mi
2:30 AM52 °FClear.5 mph88%30.21 "Hg10 mi
4:00 PM
Sep 18
70 °FPassing clouds.5 mph57%30.09 "HgN/A
3:30 PM70 °FPassing clouds.6 mph57%30.09 "HgN/A
3:00 PM70 °FPassing clouds.2 mph57%30.09 "HgN/A
2:30 PM72 °FScattered clouds.3 mph53%30.09 "HgN/A
2:00 PM70 °FScattered clouds.5 mph57%30.09 "HgN/A
1:30 PM70 °FScattered clouds.7 mph60%30.12 "HgN/A
1:00 PM70 °FScattered clouds.7 mph60%30.12 "HgN/A
12:30 PM68 °FScattered clouds.5 mph60%30.12 "HgN/A
12:00 PM66 °FScattered clouds.5 mph68%30.12 "HgN/A
11:30 AM64 °FScattered clouds.3 mph73%30.12 "HgN/A
11:00 AM64 °FPassing clouds.6 mph73%30.12 "HgN/A
10:30 AM68 °FPassing clouds.3 mph60%30.12 "HgN/A
10:00 AM66 °FPassing clouds.7 mph64%30.12 "HgN/A
9:30 AM63 °FScattered clouds.5 mph73%30.12 "HgN/A
9:00 AM61 °FScattered clouds.8 mph77%30.09 "HgN/A
8:30 AM59 °FScattered clouds.6 mph82%30.09 "HgN/A
8:00 AM59 °FScattered clouds.6 mph82%30.09 "HgN/A
7:30 AM59 °FScattered clouds.6 mph82%30.09 "HgN/A
Weather by CustomWeather, © 2014

See weather overviewHow to use our weather pages